Weather reports worldwide

Advertisment
Bergamo/Orio al Serio, Italy (16076): temperature & dewpoint: 09.07.2018 21:00:00 - 15.07.2018 21:00:00 (CEST)Bergamo/Orio al Serio, Italy (16076): wind speed: 09.07.2018 21:00:00 - 15.07.2018 21:00:00 (CEST)Bergamo/Orio al Serio, Italy (16076): wind direction: 09.07.2018 21:00:00 - 15.07.2018 21:00:00 (CEST)Bergamo/Orio al Serio, Italy (16076): reduced air pressure: 09.07.2018 21:00:00 - 15.07.2018 21:00:00 (CEST)Bergamo/Orio al Serio, Italy (16076): visibility: 09.07.2018 21:00:00 - 15.07.2018 21:00:00 (CEST)
Date & Time tt [°C] td [°C] ff [km/h] ff [kn] dd ppp [hPa] vv [km]
15.07.2018 21:00:00 - - - - - - -
15.07.2018 20:00:00 27,5 18,1 9 5 S 1011,1 10
15.07.2018 19:00:00 29,0 17,0 13 7 SW - 10
15.07.2018 18:00:00 29,0 16,0 13 7 SW - 10
15.07.2018 17:00:00 29,1 17,3 9 5 SSW 1011,8 10
15.07.2018 16:00:00 29,0 17,0 9 5 S - 10
15.07.2018 15:00:00 29,0 16,0 9 5 WSW - 10
15.07.2018 14:00:00 27,2 17,9 9 5 - 1013,9 10
15.07.2018 13:00:00 27,0 18,0 9 5 SSW - 10
15.07.2018 12:00:00 26,0 18,0 8 4 SSE - 10
15.07.2018 11:00:00 25,7 17,6 5 3 SW 1014,9 10
15.07.2018 10:00:00 24,0 17,0 5 3 - - 10
15.07.2018 09:00:00 25,0 16,0 2 1 - - 10
15.07.2018 08:00:00 21,9 16,7 5 3 NNE 1015,4 10
15.07.2018 07:00:00 20,0 16,0 8 4 NNE - 10
15.07.2018 06:00:00 19,0 16,0 8 4 N - 10
15.07.2018 05:00:00 18,9 16,0 5 3 NNW 1015,4 10
15.07.2018 04:00:00 20,0 16,0 8 4 NNE - 10
15.07.2018 03:00:00 20,0 16,0 9 5 N - 10
15.07.2018 02:00:00 20,9 16,1 8 4 N 1016,6 10
15.07.2018 01:00:00 21,0 16,0 5 3 E - 10
15.07.2018 00:00:00 21,0 16,0 8 4 NNE - 10
14.07.2018 23:00:00 21,4 16,2 5 3 ENE 1015,8 10
14.07.2018 22:00:00 22,0 17,0 8 4 ENE - 10
14.07.2018 21:00:00 23,0 16,0 9 5 N - 10
14.07.2018 20:00:00 24,1 16,9 22 12 NNE 1014,2 10
14.07.2018 19:00:00 23,0 18,0 18 10 NNW - 8
14.07.2018 18:00:00 28,0 19,0 16 9 SW - 10
14.07.2018 17:00:00 28,8 18,7 11 6 SSW 1014,2 10
14.07.2018 16:00:00 30,0 19,0 11 6 S - 10
14.07.2018 15:00:00 29,0 19,0 8 4 - - 10
14.07.2018 14:00:00 29,1 19,3 9 5 SW 1015,9 10
14.07.2018 13:00:00 28,0 19,0 11 6 SSW - 10
14.07.2018 12:00:00 28,0 19,0 9 5 S - 8
14.07.2018 11:00:00 27,2 19,6 8 4 SSE 1017,5 8
14.07.2018 10:00:00 26,0 19,0 5 3 - - 8
14.07.2018 09:00:00 25,0 19,0 5 3 NNE - 8
14.07.2018 08:00:00 22,5 18,3 5 3 NNE 1018,6 8
14.07.2018 07:00:00 21,0 18,0 11 6 NNE - 10
14.07.2018 06:00:00 21,0 18,0 8 4 NNE - 10
14.07.2018 05:00:00 21,2 17,9 8 4 N 1018,1 10
14.07.2018 04:00:00 21,0 18,0 8 4 NNE - 10
14.07.2018 03:00:00 22,0 18,0 8 4 N - 10
14.07.2018 02:00:00 21,9 18,0 8 4 NNE 1017,6 10
14.07.2018 01:00:00 22,0 18,0 9 5 NNE - 10
14.07.2018 00:00:00 23,0 18,0 5 3 NNE - 10
13.07.2018 23:00:00 23,3 18,4 8 4 NNE 1017,0 15
13.07.2018 22:00:00 24,0 18,0 9 5 NE - 10
13.07.2018 21:00:00 27,0 18,0 8 4 SSE - 8
13.07.2018 20:00:00 27,4 17,2 11 6 S 1015,5 8
13.07.2018 19:00:00 28,0 18,0 15 8 SSW - 8
13.07.2018 18:00:00 29,0 19,0 13 7 SSW - 8
13.07.2018 17:00:00 28,6 18,8 15 8 SW 1015,5 8
13.07.2018 16:00:00 28,0 19,0 13 7 SSW - 8
13.07.2018 15:00:00 28,0 19,0 11 6 SSW - 8
13.07.2018 14:00:00 27,2 18,2 9 5 SW 1016,8 8
13.07.2018 13:00:00 26,0 19,0 5 3 - - 8
13.07.2018 12:00:00 25,0 19,0 8 4 SE - 8
13.07.2018 11:00:00 23,9 18,5 8 4 SSW 1018,0 8
13.07.2018 10:00:00 21,0 19,0 8 4 ENE - 7
13.07.2018 09:00:00 23,0 19,0 0 0 N - 8
13.07.2018 08:00:00 21,3 17,7 5 3 NE 1017,6 9
13.07.2018 07:00:00 20,0 18,0 8 4 N - 10
13.07.2018 06:00:00 21,0 17,0 8 4 NE - 10
13.07.2018 05:00:00 21,1 18,2 0 0 N 1016,8 10
13.07.2018 04:00:00 21,0 18,0 4 2 N - 10
13.07.2018 03:00:00 21,0 18,0 8 4 NNE - 10
13.07.2018 02:00:00 20,8 18,2 5 3 N 1016,3 10
13.07.2018 01:00:00 21,0 18,0 5 3 NNE - 10
13.07.2018 00:00:00 21,0 18,0 4 2 NNE - 10
12.07.2018 23:00:00 21,2 18,4 8 4 NNE 1015,6 10
12.07.2018 22:00:00 22,0 19,0 5 3 NNE - 10
12.07.2018 21:00:00 24,0 17,0 0 0 N - 10
12.07.2018 20:00:00 24,7 17,0 5 3 S 1014,2 10
12.07.2018 19:00:00 25,0 18,0 8 4 SSW - 10
12.07.2018 18:00:00 26,0 18,0 8 4 S - 10
12.07.2018 17:00:00 25,7 18,1 11 6 SSW 1014,0 10
12.07.2018 16:00:00 26,0 18,0 13 7 SSW - 10
12.07.2018 15:00:00 26,0 18,0 9 5 - - 10
12.07.2018 14:00:00 24,6 18,0 5 3 SSE 1014,8 8
12.07.2018 13:00:00 24,0 18,0 5 3 NE - 8
12.07.2018 12:00:00 23,0 17,0 5 3 ENE - 8
12.07.2018 11:00:00 23,2 17,4 8 4 ESE 1015,3 7
12.07.2018 10:00:00 22,0 18,0 9 5 SE - 7
12.07.2018 09:00:00 21,0 18,0 5 3 ESE - 6
12.07.2018 08:00:00 20,8 18,2 8 4 SE 1014,9 7
12.07.2018 07:00:00 21,0 18,0 9 5 SE - 7
12.07.2018 06:00:00 20,0 18,0 4 2 ENE - 6
12.07.2018 05:00:00 20,0 18,2 8 4 E 1014,1 7
12.07.2018 04:00:00 21,0 18,0 2 1 - - 7
12.07.2018 03:00:00 20,0 18,0 4 2 - - 7
12.07.2018 02:00:00 19,7 18,0 5 3 E 1014,3 8
12.07.2018 01:00:00 21,0 18,0 8 4 SE - 8
12.07.2018 00:00:00 21,0 19,0 5 3 ESE - 8
11.07.2018 23:00:00 20,4 18,4 11 6 SE 1013,7 8
11.07.2018 22:00:00 22,0 18,0 13 7 SE - 9
11.07.2018 21:00:00 22,0 18,0 13 7 SSE - 9
11.07.2018 20:00:00 23,0 17,5 9 5 S 1011,5 10
11.07.2018 19:00:00 24,0 17,0 9 5 SE - 10
11.07.2018 18:00:00 24,0 17,0 11 6 SSE - 10
11.07.2018 17:00:00 24,4 16,2 11 6 S 1011,2 10
11.07.2018 16:00:00 24,0 17,0 13 7 SSE - 8
11.07.2018 15:00:00 24,0 17,0 15 8 S - 8
11.07.2018 14:00:00 23,5 17,2 15 8 SSE 1011,7 8
11.07.2018 13:00:00 23,0 17,0 11 6 SSE - 8
11.07.2018 12:00:00 22,0 18,0 9 5 SSE - 8
11.07.2018 11:00:00 21,6 17,9 5 3 - 1012,2 8
11.07.2018 10:00:00 21,0 18,0 4 2 - - 8
11.07.2018 09:00:00 20,0 18,0 5 3 ESE - 7
11.07.2018 08:00:00 19,2 17,8 4 2 - 1012,3 7
11.07.2018 07:00:00 20,0 19,0 11 6 SSE - 6
11.07.2018 06:00:00 19,0 18,0 5 3 ENE - 10
11.07.2018 05:00:00 19,5 18,4 4 2 - 1011,4 10
11.07.2018 04:00:00 19,0 18,0 5 3 ENE - 10
11.07.2018 03:00:00 19,0 19,0 5 3 E - 8
11.07.2018 02:00:00 19,5 19,0 8 4 SSE 1011,6 5
11.07.2018 01:00:00 20,0 19,0 8 4 E - 10
11.07.2018 00:00:00 21,0 20,0 8 4 E - 7
10.07.2018 23:00:00 22,0 19,7 13 7 NW 1010,8 10
10.07.2018 22:00:00 26,0 18,0 8 4 SSW - 10
10.07.2018 21:00:00 27,0 16,0 9 5 S - 10
10.07.2018 20:00:00 27,2 16,1 8 4 S 1009,1 10
10.07.2018 19:00:00 28,0 15,0 9 5 S - 10
10.07.2018 18:00:00 28,0 14,0 9 5 SSW - 10
10.07.2018 17:00:00 28,5 15,1 11 6 SSE 1010,1 10
10.07.2018 16:00:00 29,0 14,0 9 5 S - 10
10.07.2018 15:00:00 29,0 12,0 11 6 - - 10
10.07.2018 14:00:00 26,7 13,5 5 3 - 1012,1 10
10.07.2018 13:00:00 27,0 15,0 11 6 E - 10
10.07.2018 12:00:00 27,0 14,0 11 6 SE - 10
10.07.2018 11:00:00 25,9 14,1 9 5 SE 1013,6 20
10.07.2018 10:00:00 26,0 15,0 8 4 SE - 10
10.07.2018 09:00:00 24,0 15,0 4 2 - - 10
10.07.2018 08:00:00 23,0 16,5 8 4 NNE 1014,1 10
10.07.2018 07:00:00 22,0 15,0 9 5 N - 10
10.07.2018 06:00:00 21,0 15,0 9 5 NNE - 10
10.07.2018 05:00:00 20,5 15,3 9 5 NNE 1014,4 10
10.07.2018 04:00:00 - - - - - - -
10.07.2018 03:00:00 22,0 16,0 8 4 NNE - 10
10.07.2018 02:00:00 23,2 15,4 5 3 NE 1015,1 10
10.07.2018 01:00:00 23,0 16,0 9 5 NNE - 10
10.07.2018 00:00:00 23,0 16,0 9 5 N - 10
09.07.2018 23:00:00 23,3 16,0 8 4 NNE 1015,0 10
09.07.2018 22:00:00 25,0 15,0 5 3 E - 10
09.07.2018 21:00:00 26,0 15,0 9 5 S - 10

tt = temperature
td = dewpoint
ff = wind speed
dd = wind direction
ppp = reduced air pressure
vv = visibility

Next stations